| time (UTC) | temp F | wind direction | speed knots | gust knots | rain 1hr in | rain 24hr in | rain mn in | humidity % | barometer mb |
| 20260901231532 | 84 | 161 | 0.0 | 4.3 | 0.00 | 0.00 | 0.00 | 82 | 1017.4 |
| 20260901230041 | 85 | 239 | 0.9 | 3.5 | 0.00 | 0.00 | 0.00 | 82 | 1017.7 |
| 20260901224531 | 85 | 201 | 0.9 | 3.5 | 0.00 | 0.00 | 0.00 | 82 | 1017.8 |
| 20260901223030 | 85 | 202 | 0.9 | 4.3 | 0.00 | 0.00 | 0.00 | 82 | 1017.8 |
| 20260901221538 | 84 | 192 | 0.9 | 2.6 | 0.00 | 0.00 | 0.00 | 82 | 1017.8 |
| 20260901220030 | 85 | 192 | 0.9 | 3.5 | 0.00 | 0.00 | 0.00 | 81 | 1017.9 |
| 20260901214529 | 86 | 195 | 1.7 | 4.3 | 0.00 | 0.00 | 0.00 | 76 | 1018.0 |
| 20260901213054 | 86 | 171 | 1.7 | 8.7 | 0.00 | 0.00 | 0.00 | 76 | 1018.0 |
| 20260901211539 | 87 | 201 | 0.9 | 8.7 | 0.00 | 0.00 | 0.00 | 74 | 1017.8 |
| 20260901210035 | 86 | 193 | 3.5 | 8.7 | 0.00 | 0.00 | 0.00 | 73 | 1017.7 |
| 20260901204526 | 87 | 197 | 2.6 | 6.1 | 0.00 | 0.00 | 0.00 | 76 | 1017.8 |
| 20260901203032 | 86 | 182 | 1.7 | 5.2 | 0.00 | 0.00 | 0.00 | 82 | 1017.8 |
| 20260901201518 | 84 | 163 | 0.0 | 4.3 | 0.00 | 0.00 | 0.00 | 86 | 1017.7 |
| 20260901200034 | 81 | 195 | 0.0 | 4.3 | 0.00 | 0.00 | 0.00 | 88 | 1017.7 |
| 20260901194512 | 78 | 167 | 0.9 | 3.5 | 0.00 | 0.00 | 0.00 | 91 | 1017.8 |
| 20260901193017 | 75 | 173 | 0.0 | 2.6 | 0.00 | 0.00 | 0.00 | 91 | 1017.6 |
| 20260901191513 | 75 | 173 | 0.0 | 1.7 | 0.00 | 0.00 | 0.00 | 90 | 1017.9 |
| 20260901190010 | 74 | 173 | 0.9 | 4.3 | 0.00 | 0.00 | 0.00 | 89 | 1018.6 |
| 20260901184509 | 75 | 202 | 1.7 | 4.3 | 0.00 | 0.00 | 0.00 | 90 | 1018.6 |
| 20260901183012 | 75 | 157 | 0.0 | 2.6 | 0.00 | 0.00 | 0.00 | 90 | 1018.8 |
| 20260901181512 | 76 | 153 | 0.0 | 3.5 | 0.00 | 0.00 | 0.00 | 91 | 1019.3 |
| 20260901180007 | 76 | 28 | 0.0 | 0.9 | 0.00 | 0.00 | 0.00 | 91 | 1019.4 |
| 20260901174508 | 75 | 157 | 0.0 | 0.9 | 0.00 | 0.00 | 0.00 | 91 | 1019.5 |
| 20260901173007 | 75 | 159 | 0.0 | 0.0 | 0.00 | 0.00 | 0.00 | 91 | 1019.9 |
| 20260901171506 | 75 | 159 | 0.0 | 1.7 | 0.00 | 0.00 | 0.00 | 91 | 1019.9 |
| 20260901170007 | 74 | 159 | 0.9 | 2.6 | 0.00 | 0.00 | 0.00 | 91 | 1019.8 |
| 20260901164510 | 73 | 159 | 0.0 | 1.7 | 0.00 | 0.00 | 0.00 | 91 | 1019.7 |
| 20260901163005 | 73 | 159 | 0.0 | 2.6 | 0.00 | 0.00 | 0.00 | 91 | 1019.7 |
| 20260901161505 | 73 | 155 | 1.7 | 3.5 | 0.00 | 0.00 | 0.00 | 91 | 1019.7 |
| 20260901160004 | 73 | 34 | 0.0 | 1.7 | 0.00 | 0.00 | 0.00 | 90 | 1019.9 |
| 20260901154512 | 75 | 34 | 1.7 | 9.6 | 0.00 | 0.00 | 0.00 | 88 | 1021.1 |
| 20260901153001 | 77 | 5 | 1.7 | 9.6 | 0.00 | 0.00 | 0.00 | 85 | 1020.9 |
| 20260901151558 | 80 | 17 | 1.7 | 5.2 | 0.00 | 0.00 | 0.00 | 82 | 1020.3 |
| 20260901150054 | 81 | 238 | 0.0 | 5.2 | 0.00 | 0.00 | 0.00 | 81 | 1019.5 |
| 20260901144554 | 81 | 224 | 1.7 | 7.8 | 0.00 | 0.00 | 0.00 | 80 | 1019.1 |
| 20260901143053 | 80 | 333 | 2.6 | 6.1 | 0.00 | 0.00 | 0.00 | 81 | 1019.1 |
| 20260901141555 | 79 | 234 | 0.9 | 6.1 | 0.00 | 0.00 | 0.00 | 84 | 1019.0 |
| 20260901140044 | 78 | 230 | 1.7 | 6.1 | 0.00 | 0.00 | 0.00 | 83 | 1018.9 |
| 20260901134542 | 78 | 239 | 3.5 | 7.8 | 0.00 | 0.00 | 0.00 | 84 | 1018.9 |
| 20260901133041 | 77 | 216 | 2.6 | 6.1 | 0.00 | 0.00 | 0.00 | 85 | 1018.8 |
| 20260901131537 | 76 | 213 | 1.7 | 6.1 | 0.00 | 0.00 | 0.00 | 87 | 1019.0 |
| 20260901130033 | 75 | 212 | 2.6 | 6.1 | 0.00 | 0.00 | 0.00 | 87 | 1019.1 |
| 20260901124531 | 74 | 229 | 3.5 | 6.1 | 0.00 | 0.00 | 0.00 | 88 | 1019.2 |
| 20260901123029 | 74 | 206 | 2.6 | 6.1 | 0.00 | 0.00 | 0.00 | 89 | 1019.4 |
| 20260901121534 | 74 | 176 | 2.6 | 6.1 | 0.00 | 0.00 | 0.00 | 89 | 1019.2 |
| 20260901120038 | 74 | 226 | 1.7 | 5.2 | 0.00 | 0.00 | 0.00 | 89 | 1019.1 |
| 20260901114524 | 74 | 209 | 1.7 | 4.3 | 0.00 | 0.00 | 0.00 | 89 | 1018.9 |
| 20260901113023 | 73 | 227 | 1.7 | 4.3 | 0.00 | 0.00 | 0.00 | 89 | 1018.8 |
| 20260901111522 | 73 | 184 | 1.7 | 4.3 | 0.00 | 0.00 | 0.00 | 90 | 1018.7 |
| 20260901110023 | 73 | 220 | 2.6 | 5.2 | 0.00 | 0.00 | 0.00 | 90 | 1018.5 |
| 20260901104523 | 73 | 190 | 2.6 | 5.2 | 0.00 | 0.00 | 0.00 | 90 | 1018.4 |
| 20260901103018 | 73 | 192 | 1.7 | 5.2 | 0.00 | 0.00 | 0.00 | 90 | 1018.4 |
| 20260901101519 | 73 | 210 | 2.6 | 6.1 | 0.00 | 0.00 | 0.00 | 91 | 1018.3 |
| 20260901100017 | 73 | 192 | 0.9 | 5.2 | 0.00 | 0.00 | 0.00 | 91 | 1018.1 |
| 20260901094520 | 73 | 202 | 1.7 | 4.3 | 0.00 | 0.00 | 0.00 | 91 | 1018.1 |
| 20260901093016 | 72 | 184 | 1.7 | 5.2 | 0.00 | 0.00 | 0.00 | 91 | 1018.0 |
| 20260901091516 | 72 | 172 | 0.9 | 3.5 | 0.00 | 0.00 | 0.00 | 90 | 1018.1 |
| 20260901090015 | 71 | 202 | 0.9 | 3.5 | 0.00 | 0.00 | 0.00 | 90 | 1018.0 |
| 20260901084514 | 71 | 202 | 0.0 | 1.7 | 0.00 | 0.00 | 0.00 | 90 | 1018.1 |
| 20260901083022 | 71 | 202 | 0.0 | 1.7 | 0.00 | 0.00 | 0.00 | 91 | 1018.0 |
| 20260901081516 | 70 | 202 | 0.0 | 0.9 | 0.00 | 0.00 | 0.00 | 91 | 1018.0 |
| 20260901080013 | 71 | 202 | 0.0 | 1.7 | 0.00 | 0.00 | 0.00 | 91 | 1017.9 |
| 20260901074514 | 71 | 202 | 0.0 | 0.9 | 0.00 | 0.00 | 0.00 | 91 | 1018.0 |
| 20260901073011 | 71 | 202 | 0.0 | 0.0 | 0.00 | 0.00 | 0.00 | 91 | 1017.9 |
| 20260901071510 | 70 | 202 | 0.0 | 0.0 | 0.00 | 0.00 | 0.00 | 91 | 1018.0 |
| 20260901070021 | 71 | 202 | 0.0 | 1.7 | 0.00 | 0.00 | 0.00 | 91 | 1017.9 |
| 20260901064508 | 71 | 202 | 0.0 | 1.7 | 0.00 | 0.00 | 0.00 | 91 | 1017.9 |
| 20260901063007 | 71 | 202 | 0.0 | 1.7 | 0.00 | 0.00 | 0.00 | 91 | 1017.9 |
| 20260901061508 | 71 | 202 | 0.9 | 1.7 | 0.00 | 0.00 | 0.00 | 91 | 1018.2 |
| 20260901060005 | 71 | 202 | 0.0 | 1.7 | 0.00 | 0.00 | 0.00 | 91 | 1018.3 |
| 20260901054505 | 71 | 202 | 0.0 | 0.0 | 0.00 | 0.00 | 0.00 | 91 | 1018.4 |
| 20260901053004 | 71 | 202 | 0.0 | 0.0 | 0.00 | 0.00 | 0.00 | 91 | 1018.3 |
| 20260901051502 | 72 | 202 | 0.0 | 0.0 | 0.00 | 0.00 | 0.00 | 91 | 1018.4 |
| 20260901050001 | 72 | 202 | 0.0 | 0.0 | 0.00 | 0.00 | 0.00 | 91 | 1018.3 |
| 20260901044559 | 72 | 202 | 0.0 | 0.0 | 0.00 | 0.00 | 0.00 | 90 | 1018.3 |
| 20260901043057 | 72 | 202 | 0.0 | 0.0 | 0.00 | 0.00 | 0.00 | 90 | 1018.2 |
| 20260901041614 | 73 | 202 | 0.0 | 0.0 | 0.00 | 0.00 | 0.00 | 90 | 1017.9 |
| 20260901040059 | 74 | 200 | 0.0 | 1.7 | 0.00 | 0.00 | 0.00 | 89 | 1017.7 |
| 20260901034550 | 75 | 206 | 0.0 | 0.0 | 0.00 | 0.00 | 0.00 | 88 | 1017.5 |
| 20260901033049 | 75 | 211 | 0.0 | 3.5 | 0.00 | 0.00 | 0.00 | 88 | 1017.3 |
| 20260901031552 | 74 | 166 | 1.7 | 7.8 | 0.00 | 0.00 | 0.00 | 90 | 1017.0 |
| 20260901030046 | 72 | 196 | 0.0 | 2.6 | 0.00 | 0.00 | 0.00 | 91 | 1017.6 |
| 20260901024544 | 72 | 196 | 0.9 | 3.5 | 0.00 | 0.00 | 0.00 | 91 | 1018.1 |
| 20260901023045 | 71 | 191 | 1.7 | 3.5 | 0.00 | 0.00 | 0.00 | 91 | 1018.3 |
| 20260901021549 | 71 | 205 | 0.0 | 1.7 | 0.00 | 0.00 | 0.00 | 91 | 1018.8 |
| 20260901020042 | 72 | 205 | 0.0 | 0.0 | 0.00 | 0.00 | 0.00 | 91 | 1019.2 |
| 20260901014542 | 72 | 205 | 0.0 | 0.0 | 0.00 | 0.00 | 0.00 | 90 | 1019.4 |
| 20260901013044 | 72 | 205 | 0.0 | 0.0 | 0.00 | 0.00 | 0.00 | 90 | 1019.3 |
| 20260901011540 | 72 | 205 | 0.0 | 0.0 | 0.00 | 0.00 | 0.00 | 90 | 1019.1 |
| 20260901010044 | 73 | 205 | 0.0 | 0.0 | 0.00 | 0.00 | 0.00 | 90 | 1018.9 |
| 20260901004549 | 74 | 205 | 0.0 | 0.0 | 0.00 | 0.00 | 0.00 | 89 | 1018.7 |
| 20260901003039 | 75 | 205 | 0.0 | 0.0 | 0.00 | 0.00 | 0.00 | 89 | 1018.9 |
| 20260901001541 | 76 | 205 | 0.0 | 0.0 | 0.00 | 0.00 | 0.00 | 88 | 1018.9 |
| 20260901000041 | 77 | 205 | 0.0 | 0.9 | 0.00 | 0.00 | 0.00 | 87 | 1018.7 |
| 20260831234538 | 78 | 202 | 0.0 | 0.9 | 0.00 | 0.00 | 0.00 | 86 | 1018.7 |
| 20260831233037 | 79 | 202 | 0.0 | 0.0 | 0.00 | 0.00 | 0.00 | 86 | 1018.7 |